Date,TemperatureHighF,TemperatureAvgF,TemperatureLowF,DewpointHighF,DewpointAvgF,DewpointLowF,HumidityHigh,HumidityAvg,HumidityLow,PressureMaxIn,PressureMinIn,WindSpeedMaxMPH,WindSpeedAvgMPH,GustSpeedMaxMPH,PrecipitationSumIn
2013-3-1,44.7,35.4,14.5,23.2,18.3,6.2,69,50,38,30.50,30.25,29,6,29,0.01
2013-3-2,48.4,38.4,15.1,28.2,22.7,8.9,78,54,39,30.54,30.19,11,1,11,0.00
2013-3-3,53.7,47.0,35.0,25.9,21.1,15.3,52,36,26,29.91,29.57,27,6,27,0.00
2013-3-4,47.2,34.1,19.0,31.9,21.1,14.1,86,62,31,30.25,29.56,31,6,31,0.00
2013-3-5,54.5,37.2,12.2,17.5,10.9,4.7,81,39,15,30.50,30.12,9,1,9,0.00
2013-3-6,56.4,48.1,34.4,22.0,18.2,9.7,46,31,19,30.06,29.65,30,4,30,0.00
2013-3-7,58.6,48.2,35.0,21.3,14.8,9.2,57,28,16,29.86,29.62,27,4,27,0.00
2013-3-8,51.4,44.2,34.4,29.2,22.9,18.3,81,44,28,29.83,29.50,24,4,29,0.00
2013-3-9,35.2,27.8,23.4,26.5,21.8,16.9,88,78,52,30.09,29.53,22,4,22,0.04
2013-3-10,42.4,29.9,10.9,18.5,14.3,6.5,82,54,34,30.36,30.07,18,3,19,0.02
2013-3-11,48.7,37.3,15.0,23.5,17.5,8.2,78,46,30,30.29,29.89,25,3,25,0.02
2013-3-12,51.9,37.7,21.5,32.2,25.9,16.7,88,65,33,30.28,29.97,12,2,12,0.00
2013-3-13,57.4,46.8,26.3,27.7,24.0,20.1,78,43,27,30.34,30.10,14,2,14,0.00
2013-3-14,63.4,50.7,29.7,28.7,22.3,17.8,77,36,19,30.38,30.04,25,2,25,0.00
2013-3-15,63.9,52.7,29.0,28.9,22.1,17.5,76,34,18,30.11,29.69,25,3,25,0.00
2013-3-16,48.6,40.6,34.0,33.2,29.5,25.2,86,65,44,29.90,29.73,15,2,15,0.00
2013-3-17,51.6,43.6,33.5,31.6,22.5,15.3,82,45,27,29.71,29.44,40,11,42,0.02
2013-3-18,45.0,39.6,32.4,11.5,8.7,5.3,39,28,22,29.92,29.76,33,8,33,0.00
2013-3-19,47.7,40.9,30.5,13.0,9.5,4.8,44,28,19,30.20,29.88,23,4,23,0.00
2013-3-20,50.4,43.2,15.6,24.3,16.5,9.1,76,36,22,30.34,29.61,27,4,27,0.00
2013-3-21,49.9,41.6,28.8,29.7,19.1,11.1,66,41,28,29.72,29.38,31,8,31,0.00
2013-3-22,46.1,38.2,25.6,26.4,16.5,7.8,87,44,24,29.82,29.52,29,4,30,0.00
2013-3-23,22.1,16.0,10.0,17.1,11.1,5.1,84,80,76,30.38,29.71,18,2,18,0.03
2013-3-24,29.2,20.1,-3.8,13.3,7.4,-9.2,80,60,33,30.55,30.20,24,4,24,0.07
2013-3-25,34.4,24.4,4.5,15.0,7.9,-0.8,83,52,29,30.52,30.36,13,2,13,0.01
2013-3-26,52.3,44.3,15.6,24.0,19.5,9.1,77,39,26,30.40,29.85,20,3,20,0.00
2013-3-27,55.9,50.0,42.8,28.6,22.1,15.9,56,35,24,29.93,29.77,19,2,19,0.00
2013-3-28,54.9,40.5,25.6,28.2,24.7,20.7,83,57,28,30.11,29.97,11,1,11,0.00
2013-3-29,59.8,49.9,28.3,27.2,23.3,17.6,78,38,20,30.15,29.92,24,5,24,0.00
2013-3-30,58.6,50.6,27.1,28.9,24.0,19.9,77,37,24,30.13,29.87,24,5,29,0.00
2013-3-31,61.6,51.7,38.0,32.6,19.1,8.9,77,31,13,30.04,29.77,28,3,28,0.00